Weather History for Indianapolis, IN

Change the Weather History Date:

Thursday, June 20, 2013

  Actual Average Record
Temperature  
Mean Temperature 75 °F 73 °F  
Max Temperature 85 °F 83 °F 100 °F (1953)
Min Temperature 64 °F 64 °F 44 °F (1980)
Degree Days  
Heating Degree Days 0 0  
Month to date heating degree days 9 13  
Since 1 June heating degree days 9 13  
Since 1 July heating degree days 5405 5375  
Cooling Degree Days 10 9  
Month to date cooling degree days 116 131  
Year to date cooling degree days 245 215  
Since 1 June cooling degree days 116 131  
Growing Degree Days 24 (Base 50)    
Moisture  
Dew Point 58 °F    
Average Humidity 59    
Maximum Humidity 78    
Minimum Humidity 40    
Precipitation  
Precipitation 0.00 in 0.14 in 2.03 in (2011)
Month to date precipitation 1.52 2.81  
Year to date precipitation 23.35 20.21  
Snow  
Snow 0.00 in 0.00 in 0.00 in ()
Month to date snowfall 0.0 0.0  
Since 1 June snowfall 0.0 0.0  
Since 1 July snowfall 34.5 25.9  
Snow Depth 0.00 in    
Sea Level Pressure  
Sea Level Pressure 30.13 in    
Wind  
Wind Speed 6 mph (SSE)    
Max Wind Speed 12 mph    
Max Gust Speed 15 mph    
Visibility 10 miles    
Events      
T = Trace of Precipitation, MM = Missing Value Source: NWS Daily Summary

Daily Weather History Graph

Daily Weather History Graph

Search for Another Location

Airport:

Trip Planner

Search our weather history database for the weather conditions in past years. The results will help you decide how hot, cold, wet, or windy it might be!

Date:

Astronomy

Jun. 20, 2013 Rise Set
Actual Time 6:17 AM EDT 9:16 PM EDT
Civil Twilight 5:44 AM EDT 9:49 PM EDT
Nautical Twilight 5:03 AM EDT 10:30 PM EDT
Astronomical Twilight 4:15 AM EDT 11:18 PM EDT
Moon 6:18 PM EDT (6/20) 3:43 AM EDT (6/20)
Length of Visible Light 16h 04m
Length of Day
14h 59m
Waxing Gibbous, 89% of the Moon is Illuminated
Jun 20
Waxing Gibbous
Jun 23
Full
Jun 30
Last Quarter
Jul 8
New
Jul 15
First Quarter

Hourly Weather History & Observations

Time (EDT) Temp. Heat Index Dew Point Humidity Pressure Visibility Wind Dir Wind Speed Gust Speed Precip Events Conditions
12:54 AM 71.1 °F - 55.9 °F 59% 30.10 in 10.0 mi East 5.8 mph - N/A   Partly Cloudy
1:54 AM 70.0 °F - 57.0 °F 63% 30.10 in 10.0 mi ESE 4.6 mph - N/A   Mostly Cloudy
2:54 AM 69.1 °F - 57.0 °F 65% 30.10 in 10.0 mi ESE 3.5 mph - N/A   Mostly Cloudy
3:54 AM 66.9 °F - 57.0 °F 70% 30.10 in 10.0 mi ESE 3.5 mph - N/A   Mostly Cloudy
4:54 AM 68.0 °F - 57.0 °F 68% 30.12 in 10.0 mi ESE 3.5 mph - N/A   Mostly Cloudy
5:54 AM 66.9 °F - 57.0 °F 70% 30.12 in 10.0 mi Calm Calm - N/A   Mostly Cloudy
6:54 AM 64.9 °F - 57.9 °F 78% 30.13 in 10.0 mi SE 3.5 mph - N/A   Mostly Cloudy
7:54 AM 66.0 °F - 57.0 °F 73% 30.14 in 10.0 mi SE 8.1 mph - N/A   Mostly Cloudy
8:54 AM 71.1 °F - 59.0 °F 66% 30.15 in 10.0 mi SE 6.9 mph - N/A   Mostly Cloudy
9:54 AM 75.0 °F - 60.1 °F 60% 30.17 in 10.0 mi South 8.1 mph - N/A   Mostly Cloudy
10:54 AM 75.9 °F - 60.1 °F 58% 30.17 in 10.0 mi SSW 8.1 mph - N/A   Mostly Cloudy
11:54 AM 79.0 °F - 61.0 °F 54% 30.17 in 10.0 mi South 6.9 mph - N/A   Mostly Cloudy
12:54 PM 82.0 °F 82.7 °F 61.0 °F 49% 30.16 in 10.0 mi SSW 6.9 mph - N/A   Scattered Clouds
1:54 PM 82.0 °F 82.1 °F 59.0 °F 45% 30.15 in 10.0 mi South 11.5 mph - N/A   Scattered Clouds
2:54 PM 84.0 °F 83.3 °F 57.0 °F 40% 30.14 in 10.0 mi SW 5.8 mph - N/A   Scattered Clouds
3:54 PM 82.0 °F 82.1 °F 59.0 °F 45% 30.14 in 10.0 mi Calm Calm - N/A   Scattered Clouds
4:54 PM 84.0 °F 83.8 °F 59.0 °F 43% 30.12 in 10.0 mi East 5.8 mph - N/A   Scattered Clouds
5:54 PM 82.9 °F 82.1 °F 55.9 °F 39% 30.12 in 10.0 mi Calm Calm - N/A   Scattered Clouds
6:54 PM 82.9 °F 82.4 °F 57.0 °F 41% 30.11 in 10.0 mi South 6.9 mph - N/A   Scattered Clouds
7:54 PM 82.0 °F 81.4 °F 55.0 °F 39% 30.11 in 10.0 mi South 5.8 mph - N/A   Scattered Clouds
8:54 PM 80.1 °F 80.4 °F 57.0 °F 45% 30.10 in 10.0 mi South 6.9 mph - N/A   Scattered Clouds
9:54 PM 75.9 °F - 57.9 °F 54% 30.12 in 10.0 mi South 4.6 mph - N/A   Partly Cloudy
10:54 PM 73.9 °F - 59.0 °F 59% 30.13 in 10.0 mi SSE 6.9 mph - N/A   Partly Cloudy
11:54 PM 73.0 °F - 57.0 °F 57% 30.14 in 10.0 mi SSE 6.9 mph - N/A   Clear